GLOBALSTAR M091

Last updated on Sun Jun 21 2026 00:03:18 GMT+0000 (Coordinated Universal Time)

1 37741U 11033C 26171.43824270 -.00000101 00000+0 13185-4 0 9991 2 37741 51.9985 232.0186 0000227 161.7451 210.9529 12.62264034689695
UTC large
Height (km)
Speed (km/s)
/
Latitude / Longitude
Inclination (degrees)
Orbital Period (minutes)
Azimuth
Elevation
Range (km)
Doppler Factor

Next 0 passes for location: London (51.5072 / 0.1276)

No passes found over London.
GLOBALSTAR M091